Regional Weather Roundup
Issued by NWS

Home | Current Version | Previous Version | Graphics & Text | Print | Product List | Glossary On
Versions: 1 2 3 4 5 6 7 8 9 10 11 12 13 14 15 16 17 18 19 20 21 22 23 24 25 26 27 28 29 30 31 32 33 34 35 36 37 38 39 40 41 42 43 44 45 46 47 48 49 50
000
ASUS43 KLOT 021610
RWRIL

ILLINOIS REGIONAL WEATHER ROUNDUP
NATIONAL WEATHER SERVICE CHICAGO/ROMEOVILLE IL
1100 AM CDT THU OCT 02 2014

NOTE: "FAIR" INDICATES FEW OR NO CLOUDS BELOW 12,000 FEET WITH NO
SIGNIFICANT WEATHER AND/OR OBSTRUCTIONS TO VISIBILITY.

* THESE STATIONS ARE NOT UNDER NWS QUALITY CONTROL. THEY ALSO MAY NOT
  REPORT WEATHER SUCH AS PRECIPITATION OR FOG.

ILZ001-002-007-009-015-016-024-021700-
NORTHWEST ILLINOIS

CITY           SKY/WX    TMP DP  RH WIND       PRES   REMARKS
MOLINE         CLOUDY    68  64  87 S7        29.82F
SAVANNA*       CLOUDY    70  63  78 S9        29.82S
$$

ILZ003-004-008-010-011-017-018-021700-
NORTH CENTRAL ILLINOIS

CITY           SKY/WX    TMP DP  RH WIND       PRES   REMARKS
ROCKFORD       CLOUDY    72  62  71 S13       29.84F
FREEPORT*      CLOUDY    69  63  81 S9        29.84S
ROCHELLE*      CLOUDY    70  62  75 S6        29.84F
DE KALB*       PTSUNNY   69  63  80 S9        29.85F
PERU*          CLOUDY    69  64  85 S9        29.85F
$$

ILZ005-006-012>014-019>023-021700-
NORTHEAST ILLINOIS

CITY           SKY/WX    TMP DP  RH WIND       PRES   REMARKS
CHICAGO-OHARE  CLOUDY    71  63  75 S12       29.85F
CHICAGO-MIDWAY NOT AVBL
AURORA         CLOUDY    72  63  73 S9        29.85F
LANSING*       CLOUDY    66  62  86 SE5       29.89S
JOLIET*        CLOUDY    67  64  87 SE7       29.86F
WAUKEGAN       CLOUDY    68  62  81 SE9       29.85F
DUPAGE AIRPORT CLOUDY    74  64  71 S14       29.85F
KANKAKEE*      CLOUDY    70  67  89 CALM      29.88F
WHEELING       CLOUDY    72  63  73 S12       29.87F
MORRIS*        CLOUDY    69  66  89 SE7       29.85F
ROMEOVILLE*    CLOUDY    69  63  82 S8        29.86F
NORTHERLY ISL    N/A     69  61  75 E6          N/A
$$

LMZ740>746-021700-
SOUTHERN LAKE MICHIGAN

STATION/POSITION SKY/WX   TEMP    WIND        PRES    VSBY  WAVE
                          AIR SEA DIR/SP/G                  HT/PER
                          (F)     (DEG/KT/KT) (MB)    (MI)  (FT/S)
SOUTHERN BUOY              63 62  170/ 12/ 14 1011.4F         3/ 5
WAUKEGAN HARBOR            63     150/ 15/ 16   N/A
HARRISON CRIB              64     160/ 10/ 13   N/A
BURNHAM HARBOR             69     130/  7/  8   N/A
CALUMET HARBOR             67     160/  5/  7 1010.8F
MICHIGAN CITY              66     170/  7/  9   N/A
MICHIGAN CITY 6N           65 64  160/  6/  6   N/A           0
ST. JOSEPH                 64 63  130/  2/  2   N/A           1
$$

ILZ025>027-034>036-040-047-049-050-058-095>099-021700-
WEST-CENTRAL ILLINOIS

CITY           SKY/WX    TMP DP  RH WIND       PRES   REMARKS
QUINCY         RAIN      65  62  90 S12       29.84F FOG
GALESBURG*     CLOUDY    65  64  93 SE5       29.83S
MACOMB*        RAIN      64  64  99 S9        29.85S
JACKSONVILLE*  TSTM      68  66  93 SW13      29.90R
PITTSFIELD*    RAIN      66  64  90 S10G17    29.90R
$$

ILZ028>032-037-038-041>044-048-051>054-059>061-021700-
CENTRAL ILLINOIS

CITY           SKY/WX    TMP DP  RH WIND       PRES   REMARKS
PONTIAC        CLOUDY    73  68  83 S7        29.86F
BLOOMINGTON    MOSUNNY   72  67  84 S18         N/A
DECATUR        CLOUDY    72  67  84 S10       29.89R
PEORIA         CLOUDY    69  64  84 S8        29.87R
LACON*         CLOUDY    68  64  87 SW7       29.84S
LINCOLN*       CLOUDY    73  67  82 S9G17     29.85R
SPRINGFIELD    CLOUDY    70  66  87 S8        29.88R
TAYLORVILLE    CLOUDY    70  66  88 S7        29.88R
$$

ILZ033-039-045-046-055>057-062-063-021700-
EAST-CENTRAL ILLINOIS

CITY           SKY/WX    TMP DP  RH WIND       PRES   REMARKS
CHAMPAIGN      PTSUNNY   71  65  81 S14       29.89S
DANVILLE*      PTSUNNY   71  66  84 S16       29.87S
RANTOUL*       PTSUNNY   75  65  72 S13G18    29.88S
MATTOON        CLOUDY    69  65  86 S20G25    29.88R
PARIS*         CLOUDY    67  65  96 S8        29.92R
$$

ILZ079-100>102-021700-
SOUTHWEST ILLINOIS

CITY           SKY/WX    TMP DP  RH WIND       PRES   REMARKS
ALTON          CLOUDY    70  68  94 SE12      29.87F THUNDER
BELLEVILLE     PTSUNNY   76  70  79 E7        29.87S
CAHOKIA*       CLOUDY    74  68  81 S3        29.87S
SPARTA*        CLOUDY    80  70  71 SW10      29.89F HX  83
$$

ILZ064>066-069>071-074>076-080>082-084>086-088>090-092>094-021700-
SOUTH-CENTRAL ILLINOIS

CITY           SKY/WX    TMP DP  RH WIND       PRES   REMARKS
CARBONDALE     MOSUNNY   81  70  69 S15G21    29.89F HX  84
CAIRO*         MOSUNNY   83  69  63 S8        29.91F HX  86
EFFINGHAM*     RAIN      75  66  74 SE9       29.92S
CENTRALIA*     PTSUNNY   80  65  60 SE8       29.90F HX  82
SALEM*         PTSUNNY   77  69  76 SE5       29.90F
METROPOLIS*    MOSUNNY   84  70  61 S12       29.92F HX  88
$$

ILZ067-068-072-073-078-083-087-091-021700-
SOUTHEAST ILLINOIS

CITY           SKY/WX    TMP DP  RH WIND       PRES   REMARKS
LAWRENCEVILLE  SUNNY     77  62  59 CALM      29.95F
FLORA*         SUNNY     79  64  58 S9        29.92F HX  81
FAIRFIELD*     SUNNY     82  70  65 S12       29.91F HX  86
HARRISBURG*    MOSUNNY   81  69  66 SW9       29.93F HX  84
ROBINSON*      MOSUNNY   76  65  67 SE7       29.95F
CARMI*         MOSUNNY   84  68  57 SW10      29.92F HX  87
$$

ABBREVIATIONS USED IN REMARKS
   TC - TEMPERATURE IN CELSIUS
  WCI - WIND CHILL INDEX
   HX - HEAT INDEX
  VSB - VISIBILITY
$$




USA.gov is the U.S. government's official web portal to all federal, state and local government web resources and services.